Regional Weather Roundup
Issued by NWS

Home | Current Version | Previous Version | Graphics & Text | Print | Product List | Glossary On
Versions: 1 2 3 4 5 6 7 8 9 10 11 12 13 14 15 16 17 18 19 20 21 22 23 24 25 26 27 28 29 30 31 32 33 34 35 36 37 38 39 40 41 42 43 44 45 46 47 48 49 50
693
ASUS44 KJAN 240110
RWRMS

MISSISSIPPI HOURLY WEATHER ROUNDUP
NATIONAL WEATHER SERVICE JACKSON MS
800 PM CDT WED JUL 23 2014

NOTE: "FAIR: INDICATES FEW OR NO CLOUDS BELOW 12,000 FEET WITH NO
SIGNIFICANT WEATHER AND/OR OBSTRUCTIONS TO VISIBILITY.

MSZ001>002-007>008-010>013-018>021-025>028-034>036-240200-
NORTHWEST MISSISSIPPI

CITY           SKY/WX    TMP DP  RH WIND       PRES   REMARKS
CLEVELAND      MOCLDY    72  70  93 S7        30.01S
GREENWOOD      LGT RAIN  74  69  85 VRB6      30.05R
GREENVILLE     CLOUDY    77  70  79 N10       30.00S
GRENADA        FAIR      75  68  78 SW7       29.98F
OLIVE BRANCH   CLOUDY    73  73 100 CALM      29.98S
OXFORD         FAIR      72  70  94 W5        29.98S
TUNICA         CLOUDY    73  70  88 W5        30.00R
$$

MSZ003>006-009-014>017-022>024-029>033-037>039-240200-
NORTHEAST MISSISSIPPI

CITY           SKY/WX    TMP DP  RH WIND       PRES   REMARKS
BELMONT        FAIR      74  72  94 S3        29.99R
COLUMBUS AFB   CLOUDY    75  70  84 S7        29.97F
CORINTH        FAIR      77  72  83 N3        29.99R
GOLDN TRIANGLE PTCLDY    73  68  83 S9        29.97F
STARKVILLE     FAIR      73  68  83 S5        29.96F
TUPELO         CLOUDY    78  68  71 CALM      29.97R
$$

MSZ040-058-240200-
CENTRAL MISSISSIPPI

CITY           SKY/WX    TMP DP  RH WIND       PRES   REMARKS
JACKSON INTL   MOCLDY    76  73  91 N5        30.01R
JACKSON HAWKNS LGT RAIN  76  71  85 MISG      30.01R
MERIDIAN KEY   PTCLDY    79  71  76 S3        30.00R
MERIDIAN NAS   MOCLDY    82  72  71 CALM      30.00R
RAYMOND        FAIR      77  73  88 CALM      30.01R
VICKSBURG      PTCLDY    80  76  87 CALM      30.00R
$$

MSZ059>079-240200-
SOUTH MISSISSIPPI

CITY           SKY/WX    TMP DP  RH WIND       PRES   REMARKS
BROOKHAVEN     FAIR      79  75  89 CALM      30.03R
COLUMBIA       FAIR      81  75  83 CALM      29.99R
HATTIESBURG    PTCLDY    80  76  87 CALM      30.01R FOG
MCCOMB           N/A     81  73  76 S3        30.01R
NATCHEZ        PTCLDY    81  75  83 CALM      30.01R
PINE BELT      CLEAR     79  72  78 CALM      30.03R
$$

MSZ080>082-240200-
COASTAL MISSISSIPPI

CITY           SKY/WX    TMP DP  RH WIND       PRES   REMARKS
BAY ST LOUIS   CLEAR    N/A N/A N/A SE5       30.00R
BILOXI         CLEAR     79  72  77 S3        30.00R
PASCAGOULA     CLEAR     78  73  84 CALM      30.00R
GULFPORT       CLEAR     82  71  69 S3        29.99R
$$



USA.gov is the U.S. government's official web portal to all federal, state and local government web resources and services.